Tracking 19817 objects as of 20-Aug-2019
HD Live streaming from Space Station
objects crossing your sky now

FENGYUN 1C DEB

Track FENGYUN 1C DEB now!
10-day predictions


NORAD ID: 33632
Int'l Code: 1999-025DDR
Perigee: 696.4 km
Apogee: 767.4 km
Inclination: 99.0 °
Period: 99.3 minutes
Semi major axis: 7102 km
RCS: 0.0035 m2 (small)
Launch date: May 10, 1999
Source: People's Republic of China (PRC)
Launch site: Taiyaun Space Center, China (TSC)

Note: This is SATELLITE DEBRIS
aabbcc
Your satellite tracking list
Your tracking list is empty




NASA's NSSDC Master Catalog

Two Line Element Set (TLE):
1 33632U 99025DDR 19230.26869613 +.00001076 +00000-0 +28533-3 0  9996
2 33632 099.0349 152.5545 0050015 225.5904 134.1189 14.50266743595046
Source of the keplerian elements: AFSPC